WetterOnline ( https://www.wetteronline.ch )

Wetter aktuell Lüchow

Aktuelles Wetter: Lüchow (18m)

6-stündlich | Neueste Meldungen
Ortszeit Temperatur Wetter
Sa, 20.04. 14:00 18.4° C fast wolkenlos
Sa, 20.04. 8:00 5.1° C wolkenlos
Sa, 20.04. 2:00 6.1° C wolkenlos
Fr, 19.04. 20:00 19.1° C wolkenlos
Fr, 19.04. 14:00 21.3° C wolkenlos
Fr, 19.04. 8:00 6.6° C wolkenlos
Fr, 19.04. 2:00 8.1° C wolkenlos
Do, 18.04. 20:00 18.7° C wolkenlos
Ortszeit Temperatur Wetter
Sa, 20.04. 14:30 19.2° C leicht bewölkt
Sa, 20.04. 14:20 19.2° C leicht bewölkt
Sa, 20.04. 14:10 18.5° C wolkenlos
Sa, 20.04. 14:00 18.4° C fast wolkenlos
Sa, 20.04. 13:50 18.4° C fast wolkenlos
Sa, 20.04. 13:40 18.2° C leicht bewölkt
Sa, 20.04. 13:30 18.0° C wolkig
Sa, 20.04. 13:00 17.0° C leicht bewölkt
Sa, 20.04. 12:30 16.5° C leicht bewölkt
Sa, 20.04. 12:00 15.3° C leicht bewölkt
Sa, 20.04. 11:30 14.4° C wolkig
Ortszeit Relative Feuchte Sichtweite
Sa, 20.04. 14:00 29% 12 km
Sa, 20.04. 8:00 68% 21 km
Sa, 20.04. 2:00 64% 50 km
Fr, 19.04. 20:00 33% 35 km
Fr, 19.04. 14:00 25% 11 km
Fr, 19.04. 8:00 75% 19 km
Fr, 19.04. 2:00 64% 30 km
Do, 18.04. 20:00 29% 40 km
Ortszeit Relative Feuchte Sichtweite
Sa, 20.04. 14:30 31% 16 km
Sa, 20.04. 14:20 31% -
Sa, 20.04. 14:10 28% -
Sa, 20.04. 14:00 29% 12 km
Sa, 20.04. 13:50 29% -
Sa, 20.04. 13:40 34% -
Sa, 20.04. 13:30 38% 10 km
Sa, 20.04. 13:00 37% 11 km
Sa, 20.04. 12:30 41% 13 km
Sa, 20.04. 12:00 42% 10 km
Sa, 20.04. 11:30 45% 13 km
Ortszeit Niederschlagsmenge Niederschlagsart
Sa, 20.04. 14:00 0.0 l/m2 in 6 Std. -
Sa, 20.04. 8:00 0.0 l/m2 in 12 Std. -
Sa, 20.04. 2:00 0.0 l/m2 in 6 Std. -
Fr, 19.04. 20:00 0.0 l/m2 in 12 Std. -
Fr, 19.04. 14:00 0.0 l/m2 in 6 Std. -
Fr, 19.04. 8:00 0.0 l/m2 in 12 Std. -
Fr, 19.04. 2:00 0.0 l/m2 in 6 Std. -
Do, 18.04. 20:00 0.0 l/m2 in 12 Std. -
Ortszeit Niederschlagsmenge Niederschlagsart
Sa, 20.04. 14:30 0.0 l/m2 in 1 Std. -
Sa, 20.04. 14:20 keine Meldung -
Sa, 20.04. 14:10 keine Meldung -
Sa, 20.04. 14:00 0.0 l/m2 in 1 Std. -
Sa, 20.04. 13:50 keine Meldung -
Sa, 20.04. 13:40 keine Meldung -
Sa, 20.04. 13:30 0.0 l/m2 in 1 Std. -
Sa, 20.04. 13:00 0.0 l/m2 in 1 Std. -
Sa, 20.04. 12:30 0.0 l/m2 in 1 Std. -
Sa, 20.04. 12:00 0.0 l/m2 in 1 Std. -
Sa, 20.04. 11:30 0.0 l/m2 in 1 Std. -
Ortszeit Stärke Spitze Richtung
km/h Bft. km/h Grad Sektor
Sa, 20.04. 14:00 13 3 26 30° NO
Sa, 20.04. 8:00 9 2 13 20° N
Sa, 20.04. 2:00 4 1 25 30° NO
Fr, 19.04. 20:00 13 3 28 70° O
Fr, 19.04. 14:00 15 3 30 100° O
Fr, 19.04. 8:00 9 2 11 20° N
Fr, 19.04. 2:00 7 2 25 20° N
Do, 18.04. 20:00 9 2 35 80° O
Ortszeit Stärke Spitze Richtung
km/h Bft. km/h Grad Sektor
Sa, 20.04. 14:30 11 2 22 10° N
Sa, 20.04. 14:20 11 2 - 10° N
Sa, 20.04. 14:10 13 3 - 10° N
Sa, 20.04. 14:00 13 3 20 30° NO
Sa, 20.04. 13:50 13 3 - 30° NO
Sa, 20.04. 13:40 11 2 - 10° N
Sa, 20.04. 13:30 13 3 20 360° N
Sa, 20.04. 13:00 13 3 26 10° N
Sa, 20.04. 12:30 11 2 25 350° N
Sa, 20.04. 12:00 9 2 20 360° N
Sa, 20.04. 11:30 13 3 20 10° N
Ortszeit Untergrenze Bedeckung Gattung
total tief tief mittel hoch
Sa, 20.04. 14:00 7800 m 1/8 0/8 - - -
Sa, 20.04. 8:00 - 0/8 0/8 - - -
Sa, 20.04. 2:00 - 0/8 0/8 - - -
Fr, 19.04. 20:00 - 0/8 0/8 - - -
Fr, 19.04. 14:00 - 0/8 0/8 - - -
Fr, 19.04. 8:00 - 0/8 0/8 - - -
Fr, 19.04. 2:00 - 0/8 0/8 - - -
Do, 18.04. 20:00 - 0/8 0/8 - - -
Ortszeit Bedeckungsgrad in Achtel und Wolkenuntergrenze
Sa, 20.04. 14:30 3(9000m)
Sa, 20.04. 14:20 3(9000m)
Sa, 20.04. 14:10 keine Wolken
Sa, 20.04. 14:00 1(7800m)
Sa, 20.04. 13:50 1(7800m) 1(9000m)
Sa, 20.04. 13:40 2(7800m) 2(8700m) 3(9000m)
Sa, 20.04. 13:30 5(8100m) 5(8700m) 7(9000m)
Sa, 20.04. 13:00 6(9000m) 7(9000m)
Sa, 20.04. 12:30 6(9000m) 6(9000m)
Sa, 20.04. 12:00 5(9000m) 7(9000m)
Sa, 20.04. 11:30 2(9000m) 8(9000m)
Ortszeit Luftdruck NN (hPa) Tendenz (hPa in 3 Std.)
Sa, 20.04. 14:00 1032 - 1,3
Sa, 20.04. 8:00 1033 + 0,1
Sa, 20.04. 2:00 1033 + 0,2
Fr, 19.04. 20:00 1032 - 0,1
Fr, 19.04. 14:00 1033 - 1,1
Fr, 19.04. 8:00 1034 + 1,0
Fr, 19.04. 2:00 1032 + 0,7
Do, 18.04. 20:00 1030 + 0,3
Ortszeit Luftdruck NN (hPa) Tendenz (hPa in 3 Std.)
Sa, 20.04. 14:30 1031 - 1,6
Sa, 20.04. 14:20 1031 keine Meldung
Sa, 20.04. 14:10 1031 keine Meldung
Sa, 20.04. 14:00 1032 - 1,3
Sa, 20.04. 13:50 1032 keine Meldung
Sa, 20.04. 13:40 1032 keine Meldung
Sa, 20.04. 13:30 1032 - 1,1
Sa, 20.04. 13:00 1032 - 1,0
Sa, 20.04. 12:30 1032 - 0,9
Sa, 20.04. 12:00 1033 - 0,7
Sa, 20.04. 11:30 1033 - 0,3
Ortszeit Schneehöhe (cm)
Sa, 20.04. 14:00 0
Sa, 20.04. 8:00 0
Sa, 20.04. 2:00 0
Fr, 19.04. 20:00 0
Fr, 19.04. 14:00 0
Fr, 19.04. 8:00 0
Fr, 19.04. 2:00 0
Do, 18.04. 20:00 0
Ortszeit Schneehöhe (cm)
Sa, 20.04. 14:30 0
Sa, 20.04. 14:20 0
Sa, 20.04. 14:10 0
Sa, 20.04. 14:00 0
Sa, 20.04. 13:50 0
Sa, 20.04. 13:40 0
Sa, 20.04. 13:30 0
Sa, 20.04. 13:00 0
Sa, 20.04. 12:30 0
Sa, 20.04. 12:00 0
Sa, 20.04. 11:30 0
Link zu dieser Seite / Seite empfehlen

Das Wetter in ...